| time (UTC) | temp F | wind direction | speed MPH | gust MPH | rain 1hr in | rain 24hr in | rain mn in | humidity % | barometer mb |
| 20260507060437 | 39 | 95 | 0.0 | 0.0 | 0.00 | 0.00 | 0.00 | 96 | 1012.3 |
| 20260507055933 | 39 | 81 | 0.0 | 0.0 | 0.00 | 0.00 | 0.00 | 96 | 1012.2 |
| 20260507055429 | 39 | 95 | 0.0 | 0.0 | 0.00 | 0.00 | 0.00 | 95 | 1012.2 |
| 20260507054926 | 39 | 92 | 0.0 | 0.0 | 0.00 | 0.00 | 0.00 | 95 | 1012.2 |
| 20260507054422 | 39 | 96 | 0.0 | 0.0 | 0.00 | 0.00 | 0.00 | 95 | 1011.9 |
| 20260507053919 | 39 | 92 | 0.0 | 0.0 | 0.00 | 0.00 | 0.00 | 95 | 1011.7 |
| 20260507053416 | 39 | 95 | 0.0 | 0.0 | 0.00 | 0.00 | 0.00 | 94 | 1011.7 |
| 20260507052915 | 40 | 94 | 0.0 | 0.0 | 0.00 | 0.00 | 0.00 | 94 | 1011.8 |
| 20260507052412 | 40 | 94 | 0.0 | 0.0 | 0.00 | 0.00 | 0.00 | 94 | 1011.8 |
| 20260507051909 | 40 | 95 | 0.0 | 0.0 | 0.00 | 0.00 | 0.00 | 93 | 1011.9 |
| 20260507051407 | 40 | 90 | 0.0 | 0.0 | 0.00 | 0.00 | 0.00 | 93 | 1011.8 |
| 20260507050903 | 40 | 82 | 0.0 | 0.0 | 0.00 | 0.00 | 0.00 | 92 | 1011.9 |
| 20260507050359 | 40 | 92 | 0.0 | 0.0 | 0.00 | 0.00 | 0.00 | 91 | 1011.8 |
| 20260507045856 | 41 | 94 | 0.0 | 0.0 | 0.00 | 0.05 | 0.05 | 90 | 1011.9 |
| 20260507045353 | 41 | 94 | 0.0 | 0.0 | 0.00 | 0.05 | 0.05 | 90 | 1011.8 |
| 20260507044850 | 41 | 95 | 0.0 | 0.0 | 0.00 | 0.05 | 0.05 | 90 | 1011.9 |
| 20260507044346 | 41 | 82 | 0.0 | 0.0 | 0.00 | 0.05 | 0.05 | 89 | 1011.7 |
| 20260507043842 | 42 | 92 | 0.0 | 0.0 | 0.00 | 0.05 | 0.05 | 89 | 1011.5 |
| 20260507043339 | 42 | 94 | 0.0 | 0.0 | 0.00 | 0.05 | 0.05 | 88 | 1011.7 |
| 20260507042836 | 42 | 92 | 0.0 | 0.0 | 0.00 | 0.05 | 0.05 | 87 | 1011.4 |
| 20260507042331 | 43 | 92 | 0.0 | 0.0 | 0.00 | 0.05 | 0.05 | 88 | 1011.5 |
| 20260507041828 | 43 | 94 | 0.0 | 0.0 | 0.00 | 0.05 | 0.05 | 87 | 1011.7 |
| 20260507041325 | 43 | 94 | 0.0 | 0.0 | 0.00 | 0.05 | 0.05 | 86 | 1011.7 |
| 20260507040822 | 43 | 95 | 0.0 | 0.0 | 0.00 | 0.05 | 0.05 | 86 | 1011.8 |
| 20260507040318 | 44 | 95 | 0.0 | 0.0 | 0.00 | 0.05 | 0.05 | 85 | 1011.4 |
| 20260507035814 | 44 | 97 | 0.0 | 0.0 | 0.00 | 0.05 | 0.05 | 84 | 1011.7 |
| 20260507035309 | 45 | 95 | 0.0 | 0.0 | 0.00 | 0.05 | 0.05 | 83 | 1011.4 |
| 20260507034808 | 45 | 94 | 0.0 | 0.0 | 0.00 | 0.05 | 0.05 | 82 | 1011.4 |
| 20260507034304 | 46 | 94 | 0.0 | 0.0 | 0.00 | 0.05 | 0.05 | 80 | 1011.3 |
| 20260507033803 | 46 | 98 | 0.0 | 0.0 | 0.00 | 0.05 | 0.05 | 79 | 1011.4 |
| 20260507033300 | 46 | 112 | 0.0 | 0.0 | 0.00 | 0.05 | 0.05 | 79 | 1011.3 |
| 20260507032757 | 47 | 118 | 1.0 | 1.0 | 0.00 | 0.05 | 0.05 | 78 | 1011.2 |
| 20260507032252 | 47 | 114 | 0.0 | 1.0 | 0.00 | 0.05 | 0.05 | 78 | 1011.1 |
| 20260507031749 | 46 | 109 | 0.0 | 1.0 | 0.00 | 0.05 | 0.05 | 79 | 1011.1 |
| 20260507031247 | 47 | 111 | 0.0 | 0.0 | 0.00 | 0.05 | 0.05 | 81 | 1011.3 |
| 20260507030743 | 47 | 113 | 0.0 | 0.0 | 0.00 | 0.05 | 0.05 | 81 | 1011.0 |
| 20260507030240 | 47 | 106 | 0.0 | 0.0 | 0.00 | 0.05 | 0.05 | 81 | 1011.1 |
| 20260507025738 | 47 | 106 | 0.0 | 0.0 | 0.00 | 0.05 | 0.05 | 80 | 1011.1 |
| 20260507025234 | 47 | 100 | 0.0 | 0.0 | 0.00 | 0.05 | 0.05 | 81 | 1011.2 |
| 20260507024733 | 47 | 105 | 0.0 | 0.0 | 0.00 | 0.05 | 0.05 | 82 | 1011.0 |
| 20260507024229 | 47 | 101 | 0.0 | 0.0 | 0.00 | 0.05 | 0.05 | 81 | 1011.3 |
| 20260507023725 | 48 | 99 | 0.0 | 0.0 | 0.00 | 0.05 | 0.05 | 82 | 1011.2 |
| 20260507023222 | 48 | 116 | 0.0 | 0.0 | 0.00 | 0.05 | 0.05 | 81 | 1011.2 |
| 20260507022720 | 48 | 107 | 0.0 | 0.0 | 0.00 | 0.05 | 0.05 | 81 | 1011.1 |
| 20260507022215 | 48 | 104 | 0.0 | 0.0 | 0.00 | 0.05 | 0.05 | 80 | 1010.9 |
| 20260507021712 | 49 | 104 | 0.0 | 0.0 | 0.00 | 0.05 | 0.05 | 79 | 1010.8 |
| 20260507021207 | 49 | 102 | 0.0 | 0.0 | 0.00 | 0.05 | 0.05 | 79 | 1010.9 |
| 20260507020706 | 49 | 104 | 0.0 | 0.0 | 0.00 | 0.05 | 0.05 | 78 | 1010.7 |
| 20260507020202 | 50 | 90 | 0.0 | 0.0 | 0.00 | 0.05 | 0.05 | 79 | 1010.8 |
| 20260507015700 | 50 | 103 | 0.0 | 0.0 | 0.00 | 0.05 | 0.05 | 78 | 1010.8 |
| 20260507015157 | 50 | 110 | 0.0 | 0.0 | 0.00 | 0.05 | 0.05 | 78 | 1010.7 |
| 20260507014653 | 50 | 109 | 0.0 | 0.0 | 0.00 | 0.05 | 0.05 | 78 | 1010.6 |
| 20260507014149 | 50 | 110 | 0.0 | 0.0 | 0.00 | 0.05 | 0.05 | 78 | 1010.6 |
| 20260507013646 | 50 | 109 | 0.0 | 0.0 | 0.00 | 0.05 | 0.05 | 76 | 1010.3 |
| 20260507013143 | 51 | 110 | 0.0 | 0.0 | 0.00 | 0.05 | 0.05 | 76 | 1010.5 |
| 20260507012641 | 51 | 109 | 0.0 | 0.0 | 0.00 | 0.05 | 0.05 | 75 | 1010.3 |
| 20260507012136 | 52 | 107 | 0.0 | 0.0 | 0.00 | 0.05 | 0.05 | 71 | 1010.3 |
| 20260507011635 | 53 | 99 | 0.0 | 0.0 | 0.00 | 0.05 | 0.05 | 69 | 1010.3 |
| 20260507011131 | 53 | 103 | 0.0 | 0.0 | 0.00 | 0.05 | 0.05 | 64 | 1010.2 |
| 20260507010625 | 54 | 99 | 0.0 | 0.0 | 0.00 | 0.05 | 0.05 | 63 | 1010.4 |
| 20260507010122 | 54 | 99 | 0.0 | 0.0 | 0.00 | 0.05 | 0.05 | 63 | 1010.2 |
| 20260507005619 | 55 | 96 | 0.0 | 0.0 | 0.00 | 0.05 | 0.05 | 60 | 1010.2 |
| 20260507005115 | 55 | 95 | 0.0 | 0.0 | 0.00 | 0.05 | 0.05 | 60 | 1010.3 |
| 20260507004612 | 56 | 94 | 0.0 | 0.0 | 0.00 | 0.05 | 0.05 | 58 | 1010.0 |
| 20260507004110 | 56 | 96 | 0.0 | 0.0 | 0.00 | 0.05 | 0.05 | 57 | 1010.1 |
| 20260507003606 | 57 | 96 | 0.0 | 0.0 | 0.00 | 0.05 | 0.05 | 56 | 1010.0 |
| 20260507003101 | 57 | 73 | 0.0 | 1.0 | 0.00 | 0.05 | 0.05 | 54 | 1009.9 |
| 20260507002558 | 57 | 93 | 0.0 | 0.0 | 0.00 | 0.05 | 0.05 | 56 | 1010.2 |
| 20260507002053 | 58 | 97 | 0.0 | 0.0 | 0.00 | 0.05 | 0.05 | 53 | 1009.7 |
| 20260507001550 | 58 | 103 | 0.0 | 0.0 | 0.00 | 0.05 | 0.05 | 52 | 1009.6 |
| 20260507001048 | 59 | 97 | 0.0 | 0.0 | 0.00 | 0.05 | 0.05 | 51 | 1009.8 |
| 20260507000543 | 59 | 111 | 0.0 | 1.0 | 0.00 | 0.05 | 0.05 | 51 | 1009.7 |
| 20260507000039 | 59 | 92 | 0.0 | 0.0 | 0.00 | 0.05 | 0.05 | 50 | 1009.7 |
| 20260506235537 | 60 | 177 | 0.0 | 1.0 | 0.00 | 0.05 | 0.05 | 49 | 1009.6 |
| 20260506235032 | 61 | 80 | 1.0 | 2.0 | 0.00 | 0.05 | 0.05 | 47 | 1009.6 |
| 20260506234530 | 60 | 112 | 1.0 | 1.0 | 0.00 | 0.05 | 0.05 | 47 | 1009.2 |
| 20260506234027 | 62 | 78 | 3.0 | 3.0 | 0.00 | 0.05 | 0.05 | 45 | 1009.5 |
| 20260506233524 | 62 | 140 | 0.0 | 1.0 | 0.00 | 0.05 | 0.05 | 45 | 1009.2 |
| 20260506233016 | 62 | 98 | 3.0 | 6.0 | 0.00 | 0.05 | 0.05 | 42 | 1009.0 |
| 20260506232512 | 63 | 108 | 3.0 | 5.0 | 0.00 | 0.05 | 0.05 | 43 | 1009.1 |
| 20260506232007 | 62 | 86 | 1.0 | 2.0 | 0.00 | 0.05 | 0.05 | 46 | 1008.8 |
| 20260506231505 | 62 | 94 | 2.0 | 3.0 | 0.00 | 0.05 | 0.05 | 46 | 1009.3 |
| 20260506231003 | 62 | 74 | 1.0 | 2.0 | 0.00 | 0.05 | 0.05 | 45 | 1008.9 |
| 20260506230458 | 64 | 76 | 5.0 | 7.0 | 0.00 | 0.05 | 0.05 | 44 | 1009.1 |
| 20260506225955 | 64 | 119 | 2.0 | 2.0 | 0.00 | 0.05 | 0.05 | 43 | 1009.2 |
| 20260506225452 | 64 | 129 | 0.0 | 0.0 | 0.00 | 0.05 | 0.05 | 48 | 1008.9 |
| 20260506224948 | 65 | 121 | 1.0 | 1.0 | 0.00 | 0.05 | 0.05 | 46 | 1009.0 |
| 20260506224446 | 65 | 102 | 1.0 | 1.0 | 0.00 | 0.05 | 0.05 | 45 | 1009.1 |
| 20260506223937 | 65 | 116 | 3.0 | 5.0 | 0.00 | 0.05 | 0.05 | 42 | 1009.0 |
| 20260506223432 | 65 | 297 | 2.0 | 3.0 | 0.00 | 0.05 | 0.05 | 49 | 1009.1 |
| 20260506222930 | 65 | 155 | 0.0 | 1.0 | 0.00 | 0.05 | 0.05 | 46 | 1009.2 |
| 20260506222426 | 64 | 135 | 2.0 | 3.0 | 0.00 | 0.05 | 0.05 | 44 | 1009.1 |
| 20260506221923 | 63 | 75 | 1.0 | 2.0 | 0.00 | 0.05 | 0.05 | 50 | 1009.0 |
| 20260506221420 | 63 | 19 | 2.0 | 2.0 | 0.00 | 0.05 | 0.05 | 47 | 1009.0 |
| 20260506220918 | 62 | 71 | 2.0 | 2.0 | 0.00 | 0.05 | 0.05 | 50 | 1008.9 |
| 20260506220414 | 61 | 152 | 2.0 | 3.0 | 0.00 | 0.05 | 0.05 | 49 | 1009.1 |
| 20260506215910 | 61 | 174 | 3.0 | 3.0 | 0.00 | 0.05 | 0.05 | 46 | 1009.1 |
| 20260506215407 | 63 | 90 | 1.0 | 1.0 | 0.00 | 0.05 | 0.05 | 47 | 1009.4 |
| 20260506214902 | 62 | 148 | 3.0 | 3.0 | 0.00 | 0.05 | 0.05 | 44 | 1009.3 |
| 20260506214359 | 63 | 131 | 1.0 | 1.0 | 0.00 | 0.05 | 0.05 | 45 | 1009.1 |
| 20260506213856 | 63 | 117 | 2.0 | 2.0 | 0.00 | 0.05 | 0.05 | 45 | 1009.5 |
| 20260506213353 | 62 | 139 | 1.0 | 1.0 | 0.00 | 0.05 | 0.05 | 47 | 1009.4 |
| 20260506212846 | 62 | 127 | 1.0 | 1.0 | 0.00 | 0.05 | 0.05 | 47 | 1009.6 |
| 20260506212341 | 61 | 90 | 2.0 | 3.0 | 0.00 | 0.05 | 0.05 | 46 | 1009.6 |
| 20260506211836 | 61 | 84 | 3.0 | 5.0 | 0.00 | 0.05 | 0.05 | 48 | 1009.3 |
| 20260506211332 | 61 | 108 | 1.0 | 1.0 | 0.00 | 0.05 | 0.05 | 48 | 1009.4 |
| 20260506210824 | 64 | 53 | 3.0 | 3.0 | 0.00 | 0.05 | 0.05 | 47 | 1009.4 |
| 20260506210321 | 63 | 76 | 1.0 | 1.0 | 0.00 | 0.05 | 0.05 | 50 | 1009.4 |
| 20260506205818 | 64 | 78 | 1.0 | 2.0 | 0.00 | 0.05 | 0.05 | 46 | 1009.4 |
| 20260506205314 | 64 | 144 | 3.0 | 3.0 | 0.00 | 0.05 | 0.05 | 46 | 1009.7 |
| 20260506204811 | 64 | 76 | 1.0 | 2.0 | 0.00 | 0.05 | 0.05 | 51 | 1009.6 |
| 20260506204308 | 63 | 298 | 2.0 | 2.0 | 0.00 | 0.05 | 0.05 | 49 | 1009.8 |
| 20260506203806 | 62 | 132 | 3.0 | 5.0 | 0.00 | 0.05 | 0.05 | 49 | 1009.9 |
| 20260506203303 | 61 | 136 | 1.0 | 1.0 | 0.00 | 0.05 | 0.05 | 54 | 1009.7 |
| 20260506202800 | 61 | 74 | 1.0 | 1.0 | 0.00 | 0.05 | 0.05 | 60 | 1009.9 |
| 20260506202256 | 62 | 31 | 3.0 | 6.0 | 0.00 | 0.05 | 0.05 | 50 | 1010.0 |
| 20260506201747 | 64 | 324 | 2.0 | 2.0 | 0.00 | 0.05 | 0.05 | 55 | 1010.0 |
| 20260506201244 | 62 | 67 | 6.0 | 7.0 | 0.00 | 0.05 | 0.05 | 49 | 1009.9 |
| 20260506200741 | 61 | 132 | 0.0 | 0.0 | 0.00 | 0.05 | 0.05 | 53 | 1010.0 |
| 20260506200238 | 61 | 83 | 2.0 | 2.0 | 0.00 | 0.05 | 0.05 | 51 | 1010.1 |
| 20260506195734 | 62 | 110 | 3.0 | 3.0 | 0.00 | 0.05 | 0.05 | 55 | 1010.1 |
| 20260506195231 | 62 | 53 | 1.0 | 1.0 | 0.00 | 0.05 | 0.05 | 54 | 1010.2 |
| 20260506194728 | 62 | 132 | 1.0 | 2.0 | 0.00 | 0.05 | 0.05 | 52 | 1010.3 |
| 20260506194224 | 64 | 324 | 4.0 | 5.0 | 0.00 | 0.05 | 0.05 | 54 | 1010.6 |
| 20260506193723 | 65 | 184 | 1.0 | 1.0 | 0.00 | 0.05 | 0.05 | 50 | 1010.3 |
| 20260506193219 | 64 | 147 | 2.0 | 2.0 | 0.00 | 0.05 | 0.05 | 54 | 1010.7 |
| 20260506192715 | 62 | 113 | 1.0 | 1.0 | 0.00 | 0.05 | 0.05 | 58 | 1010.8 |
| 20260506192212 | 62 | 84 | 2.0 | 3.0 | 0.00 | 0.05 | 0.05 | 54 | 1010.6 |
| 20260506191708 | 62 | 57 | 1.0 | 1.0 | 0.00 | 0.05 | 0.05 | 57 | 1011.0 |
| 20260506191204 | 63 | 65 | 2.0 | 2.0 | 0.00 | 0.05 | 0.05 | 58 | 1010.8 |
| 20260506190702 | 62 | 127 | 0.0 | 1.0 | 0.00 | 0.05 | 0.05 | 59 | 1010.5 |
| 20260506190153 | 62 | 83 | 3.0 | 3.0 | 0.00 | 0.05 | 0.05 | 54 | 1010.9 |
| 20260506185651 | 61 | 126 | 0.0 | 1.0 | 0.00 | 0.05 | 0.05 | 59 | 1011.0 |
| 20260506185146 | 61 | 54 | 2.0 | 3.0 | 0.00 | 0.05 | 0.05 | 59 | 1011.2 |
| 20260506184644 | 61 | 182 | 2.0 | 3.0 | 0.00 | 0.05 | 0.05 | 60 | 1011.0 |
| 20260506184141 | 60 | 78 | 1.0 | 2.0 | 0.00 | 0.05 | 0.05 | 67 | 1011.0 |
| 20260506183638 | 60 | 140 | 1.0 | 1.0 | 0.00 | 0.05 | 0.05 | 60 | 1011.2 |
| 20260506183134 | 59 | 97 | 3.0 | 3.0 | 0.00 | 0.05 | 0.05 | 62 | 1011.0 |
| 20260506182632 | 59 | 130 | 1.0 | 2.0 | 0.00 | 0.05 | 0.05 | 63 | 1011.0 |
| 20260506182128 | 58 | 127 | 1.0 | 1.0 | 0.00 | 0.05 | 0.05 | 65 | 1011.1 |
| 20260506181626 | 58 | 102 | 1.0 | 1.0 | 0.00 | 0.05 | 0.05 | 65 | 1011.1 |
| 20260506181123 | 58 | 107 | 2.0 | 3.0 | 0.00 | 0.05 | 0.05 | 66 | 1011.2 |
| 20260506180620 | 58 | 253 | 3.0 | 5.0 | 0.00 | 0.05 | 0.05 | 67 | 1011.0 |
| 20260506180116 | 58 | 121 | 0.0 | 1.0 | 0.00 | 0.05 | 0.05 | 66 | 1011.0 |
| 20260506175613 | 58 | 99 | 1.0 | 2.0 | 0.00 | 0.05 | 0.05 | 68 | 1011.3 |
| 20260506175109 | 58 | 233 | 1.0 | 2.0 | 0.00 | 0.05 | 0.05 | 66 | 1011.1 |
| 20260506174608 | 57 | 205 | 1.0 | 2.0 | 0.00 | 0.05 | 0.05 | 67 | 1010.9 |
| 20260506174104 | 57 | 125 | 0.0 | 1.0 | 0.00 | 0.05 | 0.05 | 65 | 1010.8 |
| 20260506173602 | 57 | 87 | 1.0 | 2.0 | 0.00 | 0.05 | 0.05 | 63 | 1011.1 |
| 20260506173058 | 57 | 151 | 1.0 | 2.0 | 0.00 | 0.05 | 0.05 | 65 | 1011.0 |
| 20260506172556 | 57 | 120 | 0.0 | 1.0 | 0.00 | 0.05 | 0.05 | 66 | 1011.1 |
| 20260506172051 | 56 | 61 | 4.0 | 6.0 | 0.00 | 0.05 | 0.05 | 61 | 1011.0 |
| 20260506171549 | 57 | 69 | 1.0 | 2.0 | 0.00 | 0.05 | 0.05 | 64 | 1011.1 |
| 20260506171046 | 56 | 115 | 3.0 | 5.0 | 0.00 | 0.05 | 0.05 | 64 | 1010.8 |
| 20260506170543 | 56 | 93 | 3.0 | 5.0 | 0.00 | 0.05 | 0.05 | 61 | 1011.0 |
| 20260506170041 | 56 | 101 | 1.0 | 1.0 | 0.00 | 0.05 | 0.05 | 63 | 1011.1 |
| 20260506165539 | 55 | 118 | 0.0 | 1.0 | 0.00 | 0.05 | 0.05 | 63 | 1011.4 |
| 20260506165035 | 55 | 94 | 1.0 | 1.0 | 0.00 | 0.05 | 0.05 | 66 | 1011.4 |
| 20260506164532 | 55 | 55 | 1.0 | 2.0 | 0.00 | 0.05 | 0.05 | 66 | 1011.4 |
| 20260506164029 | 55 | 128 | 0.0 | 0.0 | 0.00 | 0.05 | 0.05 | 66 | 1011.5 |
| 20260506163525 | 55 | 239 | 2.0 | 2.0 | 0.00 | 0.05 | 0.05 | 70 | 1011.1 |
| 20260506163021 | 54 | 73 | 1.0 | 2.0 | 0.00 | 0.05 | 0.05 | 64 | 1011.4 |
| 20260506162518 | 54 | 104 | 0.0 | 0.0 | 0.00 | 0.05 | 0.05 | 70 | 1011.1 |
| 20260506162009 | 53 | 110 | 3.0 | 3.0 | 0.00 | 0.05 | 0.05 | 68 | 1011.2 |
| 20260506161506 | 54 | 127 | 2.0 | 2.0 | 0.00 | 0.05 | 0.05 | 67 | 1010.9 |
| 20260506160958 | 54 | 119 | 0.0 | 0.0 | 0.00 | 0.05 | 0.05 | 69 | 1011.2 |
| 20260506160456 | 54 | 132 | 0.0 | 0.0 | 0.00 | 0.05 | 0.05 | 70 | 1011.2 |
| 20260506155952 | 53 | 131 | 0.0 | 0.0 | 0.00 | 0.05 | 0.05 | 70 | 1011.1 |
| 20260506155451 | 53 | 135 | 1.0 | 1.0 | 0.00 | 0.05 | 0.05 | 69 | 1010.8 |
| 20260506153622 | 53 | 115 | 1.0 | 1.0 | 0.00 | 0.05 | 0.05 | 71 | 1010.9 |
| 20260506153119 | 53 | 121 | 0.0 | 0.0 | 0.00 | 0.05 | 0.05 | 74 | 1011.0 |
| 20260506152616 | 53 | 342 | 2.0 | 3.0 | 0.00 | 0.05 | 0.05 | 73 | 1011.0 |
| 20260506152114 | 53 | 136 | 2.0 | 2.0 | 0.00 | 0.05 | 0.05 | 73 | 1011.0 |
| 20260506151612 | 52 | 103 | 0.0 | 1.0 | 0.00 | 0.05 | 0.05 | 75 | 1010.6 |
| 20260506151109 | 53 | 87 | 1.0 | 1.0 | 0.00 | 0.05 | 0.05 | 73 | 1010.5 |
| 20260506150606 | 52 | 183 | 1.0 | 1.0 | 0.00 | 0.05 | 0.05 | 79 | 1010.8 |
| 20260506145600 | 52 | 79 | 2.0 | 2.0 | 0.00 | 0.05 | 0.05 | 74 | 1010.6 |
| 20260506145057 | 52 | 88 | 2.0 | 3.0 | 0.00 | 0.05 | 0.05 | 77 | 1010.6 |
| 20260506144554 | 52 | 129 | 0.0 | 0.0 | 0.00 | 0.05 | 0.05 | 81 | 1010.6 |
| 20260506144050 | 52 | 122 | 1.0 | 1.0 | 0.00 | 0.05 | 0.05 | 79 | 1010.3 |
| 20260506143548 | 51 | 160 | 0.0 | 1.0 | 0.00 | 0.05 | 0.05 | 81 | 1010.4 |
| 20260506143046 | 51 | 128 | 1.0 | 1.0 | 0.00 | 0.05 | 0.05 | 80 | 1010.3 |
| 20260506142544 | 51 | 329 | 3.0 | 3.0 | 0.00 | 0.05 | 0.05 | 82 | 1010.1 |
| 20260506142042 | 50 | 135 | 2.0 | 3.0 | 0.00 | 0.05 | 0.05 | 85 | 1010.4 |
| 20260506141539 | 49 | 179 | 1.0 | 2.0 | 0.00 | 0.05 | 0.05 | 88 | 1010.2 |
| 20260506141038 | 49 | 130 | 1.0 | 1.0 | 0.00 | 0.05 | 0.05 | 87 | 1010.0 |
| 20260506140535 | 49 | 88 | 4.0 | 5.0 | 0.00 | 0.05 | 0.05 | 87 | 1010.0 |
| 20260506140032 | 48 | 158 | 1.0 | 2.0 | 0.00 | 0.05 | 0.05 | 89 | 1010.1 |
| 20260506135528 | 48 | 108 | 1.0 | 1.0 | 0.00 | 0.05 | 0.05 | 91 | 1010.3 |
| 20260506135025 | 48 | 98 | 1.0 | 1.0 | 0.00 | 0.05 | 0.05 | 93 | 1010.0 |
| 20260506134521 | 47 | 103 | 0.0 | 1.0 | 0.00 | 0.05 | 0.05 | 93 | 1010.2 |
| 20260506134017 | 47 | 112 | 0.0 | 0.0 | 0.00 | 0.05 | 0.05 | 93 | 1010.2 |
| 20260506133515 | 47 | 111 | 2.0 | 2.0 | 0.00 | 0.05 | 0.05 | 94 | 1010.2 |
| 20260506133011 | 47 | 158 | 1.0 | 2.0 | 0.00 | 0.05 | 0.05 | 96 | 1010.3 |
| 20260506132508 | 47 | 131 | 0.0 | 0.0 | 0.00 | 0.05 | 0.05 | 97 | 1010.4 |
| 20260506132006 | 46 | 116 | 1.0 | 1.0 | 0.00 | 0.05 | 0.05 | 97 | 1009.8 |
| 20260506131504 | 46 | 92 | 0.0 | 0.0 | 0.00 | 0.05 | 0.05 | 98 | 1010.2 |
| 20260506131000 | 46 | 121 | 0.0 | 1.0 | 0.00 | 0.05 | 0.05 | 98 | 1010.3 |
| 20260506130456 | 45 | 74 | 1.0 | 2.0 | 0.00 | 0.05 | 0.05 | 99 | 1010.3 |
| 20260506125954 | 45 | 113 | 0.0 | 1.0 | 0.00 | 0.05 | 0.05 | 99 | 1010.2 |
| 20260506125452 | 45 | 70 | 1.0 | 1.0 | 0.00 | 0.05 | 0.05 | 99 | 1010.2 |
| 20260506124950 | 45 | 115 | 0.0 | 0.0 | 0.00 | 0.05 | 0.05 | 99 | 1010.2 |
| 20260506124447 | 45 | 109 | 0.0 | 1.0 | 0.00 | 0.05 | 0.05 | 99 | 1010.1 |
| 20260506123945 | 45 | 82 | 0.0 | 0.0 | 0.00 | 0.05 | 0.05 | 99 | 1010.2 |
| 20260506123443 | 45 | 134 | 1.0 | 1.0 | 0.00 | 0.05 | 0.05 | 99 | 1010.5 |
| 20260506122939 | 45 | 69 | 0.0 | 0.0 | 0.00 | 0.05 | 0.05 | 99 | 1010.2 |
| 20260506122436 | 45 | 104 | 0.0 | 1.0 | 0.00 | 0.05 | 0.05 | 99 | 1010.3 |
| 20260506121936 | 45 | 45 | 1.0 | 2.0 | 0.00 | 0.05 | 0.05 | 99 | 1010.4 |
| 20260506121432 | 45 | 127 | 0.0 | 0.0 | 0.00 | 0.05 | 0.05 | 99 | 1010.4 |
| 20260506120928 | 45 | 90 | 0.0 | 1.0 | 0.00 | 0.05 | 0.05 | 99 | 1010.2 |
| 20260506120426 | 44 | 75 | 1.0 | 1.0 | 0.00 | 0.05 | 0.05 | 99 | 1010.0 |
| 20260506115923 | 44 | 115 | 0.0 | 0.0 | 0.00 | 0.05 | 0.05 | 99 | 1009.8 |
| 20260506115421 | 44 | 117 | 0.0 | 0.0 | 0.00 | 0.05 | 0.05 | 99 | 1009.5 |
| 20260506114919 | 44 | 122 | 0.0 | 0.0 | 0.00 | 0.05 | 0.05 | 99 | 1009.4 |
| 20260506114416 | 44 | 124 | 0.0 | 0.0 | 0.00 | 0.05 | 0.05 | 99 | 1009.5 |
| 20260506113915 | 44 | 116 | 0.0 | 0.0 | 0.00 | 0.05 | 0.05 | 99 | 1008.9 |
| 20260506113412 | 44 | 96 | 0.0 | 0.0 | 0.00 | 0.05 | 0.05 | 99 | 1009.3 |
| 20260506112908 | 44 | 118 | 0.0 | 0.0 | 0.00 | 0.05 | 0.05 | 99 | 1009.1 |
| 20260506112406 | 44 | 150 | 2.0 | 3.0 | 0.00 | 0.05 | 0.05 | 99 | 1009.2 |
| 20260506111903 | 44 | 132 | 0.0 | 1.0 | 0.00 | 0.05 | 0.05 | 99 | 1008.9 |
| 20260506111401 | 44 | 112 | 1.0 | 1.0 | 0.00 | 0.05 | 0.05 | 99 | 1008.8 |
| 20260506110858 | 44 | 118 | 0.0 | 0.0 | 0.00 | 0.05 | 0.05 | 99 | 1008.7 |
| 20260506110355 | 44 | 124 | 0.0 | 0.0 | 0.00 | 0.05 | 0.05 | 99 | 1008.8 |
| 20260506105852 | 44 | 100 | 1.0 | 1.0 | 0.00 | 0.05 | 0.05 | 99 | 1008.5 |
| 20260506105349 | 44 | 123 | 0.0 | 0.0 | 0.00 | 0.05 | 0.05 | 99 | 1008.5 |
| 20260506104846 | 44 | 115 | 0.0 | 0.0 | 0.00 | 0.05 | 0.05 | 99 | 1008.5 |
| 20260506104344 | 44 | 133 | 1.0 | 1.0 | 0.00 | 0.05 | 0.05 | 99 | 1008.2 |
| 20260506103841 | 44 | 119 | 0.0 | 0.0 | 0.00 | 0.05 | 0.05 | 99 | 1008.0 |
| 20260506103339 | 44 | 110 | 0.0 | 0.0 | 0.00 | 0.05 | 0.05 | 99 | 1008.4 |
| 20260506102836 | 44 | 108 | 0.0 | 0.0 | 0.00 | 0.05 | 0.05 | 99 | 1008.1 |
| 20260506102334 | 44 | 121 | 0.0 | 0.0 | 0.00 | 0.05 | 0.05 | 99 | 1008.8 |
| 20260506101831 | 44 | 107 | 0.0 | 0.0 | 0.00 | 0.05 | 0.05 | 99 | 1008.0 |
| 20260506101326 | 44 | 121 | 0.0 | 0.0 | 0.00 | 0.05 | 0.05 | 99 | 1007.6 |
| 20260506100825 | 44 | 100 | 1.0 | 1.0 | 0.00 | 0.05 | 0.05 | 99 | 1007.9 |
| 20260506100323 | 44 | 127 | 0.0 | 0.0 | 0.00 | 0.05 | 0.05 | 99 | 1008.0 |
| 20260506095821 | 44 | 114 | 0.0 | 0.0 | 0.00 | 0.05 | 0.05 | 99 | 1008.2 |
| 20260506095318 | 44 | 119 | 0.0 | 0.0 | 0.00 | 0.05 | 0.05 | 99 | 1008.6 |
| 20260506094815 | 44 | 157 | 0.0 | 0.0 | 0.00 | 0.05 | 0.05 | 99 | 1008.4 |
| 20260506094313 | 44 | 122 | 0.0 | 0.0 | 0.00 | 0.05 | 0.05 | 99 | 1007.6 |
| 20260506093811 | 44 | 117 | 0.0 | 0.0 | 0.00 | 0.05 | 0.05 | 99 | 1007.5 |
| 20260506093308 | 43 | 111 | 0.0 | 0.0 | 0.00 | 0.05 | 0.05 | 99 | 1007.7 |
| 20260506092806 | 43 | 116 | 0.0 | 0.0 | 0.00 | 0.05 | 0.05 | 99 | 1007.7 |
| 20260506092305 | 43 | 117 | 0.0 | 0.0 | 0.00 | 0.05 | 0.05 | 99 | 1007.6 |
| 20260506091800 | 43 | 121 | 0.0 | 0.0 | 0.00 | 0.05 | 0.05 | 99 | 1007.4 |
| 20260506091258 | 43 | 120 | 0.0 | 0.0 | 0.00 | 0.05 | 0.05 | 99 | 1006.9 |
| 20260506090756 | 43 | 141 | 1.0 | 1.0 | 0.00 | 0.05 | 0.05 | 99 | 1006.6 |
| 20260506090252 | 43 | 112 | 0.0 | 0.0 | 0.00 | 0.05 | 0.05 | 99 | 1005.9 |
| 20260506085749 | 43 | 81 | 0.0 | 0.0 | 0.00 | 0.05 | 0.05 | 99 | 1005.7 |
| 20260506085245 | 43 | 105 | 0.0 | 0.0 | 0.00 | 0.05 | 0.05 | 99 | 1006.0 |
| 20260506084742 | 43 | 102 | 0.0 | 0.0 | 0.00 | 0.05 | 0.05 | 99 | 1006.2 |
| 20260506084238 | 43 | 90 | 1.0 | 1.0 | 0.00 | 0.05 | 0.05 | 99 | 1006.3 |
| 20260506083735 | 43 | 103 | 0.0 | 0.0 | 0.00 | 0.05 | 0.05 | 99 | 1006.4 |
| 20260506083233 | 43 | 103 | 0.0 | 0.0 | 0.00 | 0.05 | 0.05 | 99 | 1006.4 |
| 20260506082730 | 43 | 104 | 0.0 | 1.0 | 0.00 | 0.05 | 0.05 | 99 | 1006.6 |
| 20260506082226 | 43 | 113 | 0.0 | 1.0 | 0.00 | 0.05 | 0.05 | 99 | 1006.3 |
| 20260506081724 | 43 | 86 | 1.0 | 1.0 | 0.00 | 0.05 | 0.05 | 99 | 1006.6 |
| 20260506081221 | 43 | 109 | 2.0 | 2.0 | 0.00 | 0.05 | 0.05 | 99 | 1006.5 |
| 20260506080720 | 43 | 114 | 0.0 | 0.0 | 0.00 | 0.05 | 0.05 | 99 | 1007.0 |
| 20260506080215 | 43 | 102 | 0.0 | 0.0 | 0.00 | 0.05 | 0.05 | 99 | 1007.0 |
| 20260506073200 | 43 | 100 | 0.0 | 0.0 | 0.00 | 0.05 | 0.05 | 99 | 1006.8 |
| 20260506072656 | 43 | 120 | 0.0 | 1.0 | 0.00 | 0.05 | 0.05 | 99 | 1006.8 |
| 20260506072154 | 43 | 114 | 0.0 | 0.0 | 0.00 | 0.05 | 0.05 | 99 | 1006.8 |
| 20260506071651 | 43 | 155 | 1.0 | 1.0 | 0.00 | 0.05 | 0.05 | 99 | 1007.1 |
| 20260506071149 | 43 | 111 | 0.0 | 0.0 | 0.00 | 0.05 | 0.05 | 99 | 1007.0 |
| 20260506070645 | 43 | 109 | 0.0 | 0.0 | 0.00 | 0.05 | 0.05 | 99 | 1006.7 |
| 20260506070142 | 43 | 118 | 2.0 | 3.0 | 0.00 | 0.05 | 0.05 | 99 | 1006.9 |
| 20260506062120 | 43 | 112 | 0.0 | 0.0 | 0.00 | 0.05 | 0.05 | 99 | 1006.8 |
| 20260506061616 | 43 | 117 | 0.0 | 0.0 | 0.00 | 0.05 | 0.05 | 99 | 1007.3 |
| 20260506061114 | 43 | 164 | 1.0 | 1.0 | 0.05 | 0.05 | 0.05 | 99 | 1007.2 |